| time (UTC) | temp C | wind direction | speed KPH | gust KPH | rain 1hr cm | rain 24hr cm | rain mn cm | humidity % | barometer mb |
| 20260502170208 | 19 | 350 | 11.3 | 16.1 | 0.00 | 0.00 | 0.00 | 33 | 1022.5 |
| 20260502164149 | 17 | 275 | 8.0 | 16.1 | 0.00 | 0.00 | 0.00 | 41 | 1022.7 |
| 20260502163644 | 18 | 318 | 12.9 | 14.5 | 0.00 | 0.00 | 0.00 | 38 | 1022.4 |
| 20260502163141 | 17 | 359 | 12.9 | 17.7 | 0.00 | 0.00 | 0.00 | 41 | 1022.7 |
| 20260502162638 | 17 | 312 | 11.3 | 19.3 | 0.00 | 0.00 | 0.00 | 42 | 1022.5 |
| 20260502162136 | 17 | 346 | 11.3 | 12.9 | 0.00 | 0.00 | 0.00 | 42 | 1022.6 |
| 20260502161633 | 17 | 310 | 12.9 | 16.1 | 0.00 | 0.00 | 0.00 | 43 | 1022.7 |
| 20260502161129 | 16 | 316 | 9.7 | 9.7 | 0.00 | 0.00 | 0.00 | 45 | 1022.8 |
| 20260502160627 | 16 | 339 | 12.9 | 25.7 | 0.00 | 0.00 | 0.00 | 45 | 1022.7 |
| 20260502160126 | 16 | 313 | 9.7 | 19.3 | 0.00 | 0.00 | 0.00 | 44 | 1022.6 |
| 20260502152040 | 14 | 314 | 17.7 | 25.7 | 0.00 | 0.00 | 0.00 | 54 | 1022.6 |
| 20260502151537 | 14 | 310 | 9.7 | 24.1 | 0.00 | 0.00 | 0.00 | 55 | 1022.8 |
| 20260502151034 | 14 | 241 | 8.0 | 12.9 | 0.00 | 0.00 | 0.00 | 57 | 1022.8 |
| 20260502150532 | 13 | 293 | 16.1 | 27.4 | 0.00 | 0.00 | 0.00 | 59 | 1022.8 |
| 20260502130411 | 5 | 244 | 6.4 | 9.7 | 0.00 | 0.00 | 0.00 | 88 | 1022.5 |
| 20260502123353 | 3 | 179 | 3.2 | 8.0 | 0.00 | 0.00 | 0.00 | 92 | 1022.0 |
| 20260502122850 | 3 | 203 | 3.2 | 9.7 | 0.00 | 0.00 | 0.00 | 92 | 1021.7 |
| 20260502122346 | 3 | 177 | 3.2 | 9.7 | 0.00 | 0.00 | 0.00 | 93 | 1022.0 |
| 20260502121845 | 3 | 223 | 4.8 | 9.7 | 0.00 | 0.00 | 0.00 | 93 | 1021.9 |
| 20260502121342 | 2 | 200 | 3.2 | 6.4 | 0.00 | 0.00 | 0.00 | 92 | 1021.8 |
| 20260502120839 | 1 | 169 | 4.8 | 8.0 | 0.00 | 0.00 | 0.00 | 92 | 1021.7 |
| 20260502120335 | 2 | 183 | 6.4 | 8.0 | 0.00 | 0.00 | 0.00 | 92 | 1021.6 |
| 20260502115833 | 2 | 158 | 1.6 | 6.4 | 0.00 | 0.00 | 0.00 | 91 | 1021.5 |
| 20260502115330 | 2 | 174 | 6.4 | 8.0 | 0.00 | 0.00 | 0.00 | 91 | 1021.7 |
| 20260502114826 | 3 | 184 | 4.8 | 6.4 | 0.00 | 0.00 | 0.00 | 92 | 1021.6 |
| 20260502114323 | 3 | 217 | 4.8 | 9.7 | 0.00 | 0.00 | 0.00 | 92 | 1021.5 |
| 20260502113820 | 2 | 219 | 8.0 | 9.7 | 0.00 | 0.00 | 0.00 | 91 | 1021.6 |
| 20260502113318 | 2 | 181 | 6.4 | 9.7 | 0.00 | 0.00 | 0.00 | 90 | 1021.7 |
| 20260502112816 | 3 | 213 | 6.4 | 9.7 | 0.00 | 0.00 | 0.00 | 91 | 1021.6 |
| 20260502112313 | 2 | 173 | 3.2 | 8.0 | 0.00 | 0.00 | 0.00 | 90 | 1021.8 |
| 20260502111810 | 2 | 180 | 6.4 | 9.7 | 0.00 | 0.00 | 0.00 | 89 | 1021.9 |
| 20260502111308 | 5 | 227 | 9.7 | 12.9 | 0.00 | 0.00 | 0.00 | 90 | 1021.6 |
| 20260502110805 | 4 | 235 | 8.0 | 9.7 | 0.00 | 0.00 | 0.00 | 91 | 1021.8 |
| 20260502110303 | 4 | 190 | 4.8 | 9.7 | 0.00 | 0.00 | 0.00 | 91 | 1021.7 |
| 20260502105800 | 4 | 180 | 3.2 | 8.0 | 0.05 | 0.00 | 0.00 | 91 | 1021.8 |
| 20260502105256 | 4 | 265 | 3.2 | 9.7 | 0.05 | 0.00 | 0.00 | 92 | 1021.7 |
| 20260502104755 | 3 | 268 | 3.2 | 8.0 | 0.00 | 0.00 | 0.00 | 92 | 1021.8 |
| 20260502104251 | 3 | 321 | 3.2 | 12.9 | 0.00 | 0.00 | 0.00 | 92 | 1021.8 |
| 20260502103749 | 3 | 305 | 6.4 | 6.4 | 0.00 | 0.00 | 0.00 | 92 | 1021.8 |
| 20260502103246 | 3 | 210 | 3.2 | 9.7 | 0.00 | 0.00 | 0.00 | 92 | 1021.9 |
| 20260502102743 | 3 | 235 | 3.2 | 9.7 | 0.00 | 0.00 | 0.00 | 92 | 1021.8 |
| 20260502102239 | 2 | 221 | 3.2 | 6.4 | 0.00 | 0.00 | 0.00 | 91 | 1021.9 |
| 20260502101738 | 1 | 150 | 4.8 | 6.4 | 0.00 | 0.00 | 0.00 | 91 | 1022.0 |
| 20260502101236 | 2 | 167 | 1.6 | 6.4 | 0.00 | 0.00 | 0.00 | 90 | 1021.8 |
| 20260502100733 | 3 | 183 | 4.8 | 9.7 | 0.00 | 0.00 | 0.00 | 91 | 1021.7 |
| 20260502100232 | 3 | 222 | 8.0 | 9.7 | 0.00 | 0.00 | 0.00 | 91 | 1021.6 |
| 20260502091205 | 1 | 156 | 1.6 | 3.2 | 0.00 | 0.00 | 0.00 | 92 | 1021.5 |
| 20260502090703 | 2 | 153 | 3.2 | 4.8 | 0.00 | 0.00 | 0.00 | 92 | 1021.6 |
| 20260502090200 | 2 | 166 | 4.8 | 6.4 | 0.00 | 0.00 | 0.00 | 92 | 1021.5 |
| 20260502071050 | 3 | 145 | 6.4 | 6.4 | 0.00 | 0.00 | 0.00 | 87 | 1022.1 |
| 20260502070548 | 3 | 140 | 4.8 | 6.4 | 0.00 | 0.00 | 0.00 | 87 | 1022.1 |
| 20260502070045 | 3 | 168 | 4.8 | 6.4 | 0.00 | 0.00 | 0.00 | 87 | 1022.0 |
| 20260502065543 | 3 | 165 | 3.2 | 6.4 | 0.00 | 0.00 | 0.00 | 86 | 1022.1 |
| 20260502065035 | 3 | 154 | 4.8 | 6.4 | 0.00 | 0.00 | 0.00 | 86 | 1022.0 |
| 20260502064533 | 3 | 126 | 4.8 | 4.8 | 0.00 | 0.00 | 0.00 | 86 | 1022.0 |
| 20260502064030 | 3 | 126 | 3.2 | 6.4 | 0.00 | 0.00 | 0.00 | 86 | 1022.0 |
| 20260502063528 | 4 | 150 | 3.2 | 4.8 | 0.00 | 0.00 | 0.00 | 86 | 1021.9 |
| 20260502063026 | 4 | 158 | 0.0 | 3.2 | 0.00 | 0.00 | 0.00 | 86 | 1022.1 |
| 20260502062522 | 3 | 135 | 0.0 | 3.2 | 0.00 | 0.00 | 0.00 | 86 | 1022.0 |
| 20260502062021 | 3 | 162 | 3.2 | 4.8 | 0.00 | 0.00 | 0.00 | 86 | 1022.0 |
| 20260502061518 | 3 | 141 | 6.4 | 8.0 | 0.00 | 0.00 | 0.00 | 85 | 1022.0 |
| 20260502061015 | 3 | 142 | 6.4 | 6.4 | 0.00 | 0.00 | 0.00 | 85 | 1022.2 |
| 20260502060510 | 3 | 159 | 4.8 | 6.4 | 0.00 | 0.00 | 0.00 | 85 | 1022.0 |
| 20260502060008 | 4 | 159 | 6.4 | 6.4 | 0.00 | 0.00 | 0.00 | 85 | 1022.1 |
| 20260502055504 | 4 | 153 | 3.2 | 3.2 | 0.00 | 0.00 | 0.00 | 85 | 1022.2 |
| 20260502055004 | 4 | 124 | 3.2 | 3.2 | 0.00 | 0.00 | 0.00 | 85 | 1021.9 |
| 20260502054502 | 4 | 109 | 3.2 | 3.2 | 0.00 | 0.00 | 0.00 | 85 | 1022.0 |
| 20260502053958 | 4 | 107 | 3.2 | 4.8 | 0.00 | 0.00 | 0.00 | 85 | 1022.0 |
| 20260502053455 | 4 | 139 | 4.8 | 4.8 | 0.00 | 0.00 | 0.00 | 84 | 1022.2 |
| 20260502052953 | 5 | 141 | 4.8 | 6.4 | 0.00 | 0.00 | 0.00 | 84 | 1022.4 |
| 20260502052451 | 5 | 122 | 3.2 | 4.8 | 0.00 | 0.00 | 0.00 | 84 | 1022.2 |
| 20260502051949 | 5 | 137 | 3.2 | 4.8 | 0.00 | 0.00 | 0.00 | 84 | 1022.0 |
| 20260502051447 | 5 | 163 | 3.2 | 3.2 | 0.00 | 0.00 | 0.00 | 84 | 1022.0 |
| 20260502050944 | 5 | 132 | 1.6 | 3.2 | 0.00 | 0.00 | 0.00 | 84 | 1022.0 |
| 20260502050440 | 5 | 120 | 3.2 | 4.8 | 0.00 | 0.00 | 0.00 | 84 | 1021.9 |
| 20260502045938 | 5 | 138 | 4.8 | 6.4 | 0.00 | 0.00 | 0.00 | 83 | 1021.9 |
| 20260502045434 | 5 | 142 | 6.4 | 6.4 | 0.00 | 0.00 | 0.00 | 83 | 1021.7 |
| 20260502044931 | 5 | 138 | 6.4 | 8.0 | 0.00 | 0.00 | 0.00 | 83 | 1021.8 |
| 20260502044427 | 5 | 140 | 6.4 | 6.4 | 0.00 | 0.00 | 0.00 | 83 | 1022.0 |
| 20260502043924 | 6 | 169 | 3.2 | 4.8 | 0.00 | 0.00 | 0.00 | 83 | 1021.8 |
| 20260502043422 | 6 | 149 | 1.6 | 3.2 | 0.00 | 0.00 | 0.00 | 82 | 1021.8 |
| 20260502042921 | 6 | 169 | 3.2 | 3.2 | 0.00 | 0.00 | 0.00 | 83 | 1021.8 |
| 20260502042419 | 6 | 193 | 3.2 | 3.2 | 0.00 | 0.00 | 0.00 | 83 | 1021.8 |
| 20260502041915 | 6 | 191 | 3.2 | 6.4 | 0.00 | 0.00 | 0.00 | 83 | 1021.8 |
| 20260502041414 | 6 | 160 | 3.2 | 4.8 | 0.00 | 0.00 | 0.00 | 81 | 1021.5 |
| 20260502040910 | 6 | 130 | 3.2 | 4.8 | 0.00 | 0.00 | 0.00 | 79 | 1021.6 |
| 20260502040407 | 7 | 107 | 1.6 | 1.6 | 0.00 | 0.00 | 0.00 | 79 | 1021.6 |
| 20260502035903 | 7 | 60 | 0.0 | 1.6 | 0.00 | 0.00 | 0.00 | 78 | 1021.5 |
| 20260502035400 | 7 | 53 | 3.2 | 3.2 | 0.00 | 0.00 | 0.00 | 78 | 1021.7 |
| 20260502034857 | 7 | 38 | 3.2 | 4.8 | 0.00 | 0.00 | 0.00 | 79 | 1021.6 |
| 20260502034356 | 7 | 53 | 3.2 | 4.8 | 0.00 | 0.00 | 0.00 | 79 | 1021.7 |
| 20260502033854 | 7 | 62 | 1.6 | 3.2 | 0.00 | 0.00 | 0.00 | 78 | 1021.7 |
| 20260502033351 | 7 | 55 | 3.2 | 3.2 | 0.00 | 0.00 | 0.00 | 77 | 1021.9 |
| 20260502032847 | 8 | 31 | 1.6 | 3.2 | 0.00 | 0.00 | 0.00 | 76 | 1021.7 |
| 20260502032343 | 8 | 31 | 4.8 | 4.8 | 0.00 | 0.00 | 0.00 | 76 | 1021.4 |
| 20260502031841 | 8 | 7 | 3.2 | 4.8 | 0.00 | 0.00 | 0.00 | 75 | 1021.5 |
| 20260502031340 | 8 | 19 | 4.8 | 6.4 | 0.00 | 0.00 | 0.00 | 75 | 1021.6 |
| 20260502030838 | 8 | 7 | 4.8 | 8.0 | 0.00 | 0.00 | 0.00 | 75 | 1021.6 |
| 20260502030336 | 8 | 11 | 6.4 | 6.4 | 0.00 | 0.00 | 0.00 | 75 | 1021.5 |
| 20260502025832 | 8 | 29 | 4.8 | 6.4 | 0.00 | 0.00 | 0.00 | 75 | 1021.4 |
| 20260502025330 | 8 | 13 | 3.2 | 6.4 | 0.00 | 0.00 | 0.00 | 75 | 1021.2 |
| 20260502024828 | 8 | 14 | 4.8 | 8.0 | 0.00 | 0.00 | 0.00 | 75 | 1021.4 |
| 20260502024325 | 8 | 19 | 4.8 | 6.4 | 0.00 | 0.00 | 0.00 | 75 | 1021.2 |
| 20260502023823 | 8 | 17 | 4.8 | 4.8 | 0.00 | 0.00 | 0.00 | 75 | 1021.1 |
| 20260502023321 | 8 | 24 | 3.2 | 6.4 | 0.00 | 0.00 | 0.00 | 74 | 1021.0 |
| 20260502022819 | 8 | 6 | 3.2 | 4.8 | 0.00 | 0.00 | 0.00 | 74 | 1021.0 |
| 20260502022315 | 8 | 22 | 4.8 | 4.8 | 0.00 | 0.00 | 0.00 | 73 | 1021.2 |
| 20260502021811 | 8 | 25 | 4.8 | 4.8 | 0.00 | 0.00 | 0.00 | 73 | 1021.0 |
| 20260502021309 | 8 | 14 | 3.2 | 4.8 | 0.00 | 0.00 | 0.00 | 72 | 1021.1 |
| 20260502020806 | 9 | 1 | 3.2 | 4.8 | 0.00 | 0.00 | 0.00 | 72 | 1020.8 |
| 20260502020303 | 9 | 16 | 3.2 | 3.2 | 0.00 | 0.00 | 0.00 | 71 | 1020.8 |
| 20260502015800 | 9 | 19 | 4.8 | 4.8 | 0.00 | 0.00 | 0.00 | 70 | 1020.5 |
| 20260502015257 | 10 | 16 | 4.8 | 6.4 | 0.00 | 0.00 | 0.00 | 69 | 1020.6 |
| 20260502014755 | 10 | 19 | 4.8 | 4.8 | 0.00 | 0.00 | 0.00 | 69 | 1020.6 |
| 20260502014251 | 10 | 27 | 3.2 | 4.8 | 0.00 | 0.00 | 0.00 | 68 | 1020.8 |
| 20260502013747 | 10 | 13 | 3.2 | 4.8 | 0.00 | 0.00 | 0.00 | 68 | 1020.2 |
| 20260502013243 | 10 | 14 | 4.8 | 6.4 | 0.00 | 0.00 | 0.00 | 67 | 1020.4 |
| 20260502012740 | 10 | 3 | 4.8 | 4.8 | 0.00 | 0.00 | 0.00 | 66 | 1020.2 |
| 20260502012238 | 11 | 349 | 6.4 | 6.4 | 0.00 | 0.00 | 0.00 | 65 | 1020.2 |
| 20260502011735 | 11 | 5 | 3.2 | 6.4 | 0.00 | 0.00 | 0.00 | 64 | 1019.7 |
| 20260502011231 | 11 | 12 | 4.8 | 6.4 | 0.00 | 0.00 | 0.00 | 63 | 1019.9 |
| 20260502010729 | 11 | 7 | 6.4 | 9.7 | 0.00 | 0.00 | 0.00 | 62 | 1019.9 |
| 20260502010224 | 11 | 12 | 6.4 | 6.4 | 0.00 | 0.00 | 0.00 | 62 | 1019.8 |
| 20260502005722 | 12 | 6 | 6.4 | 9.7 | 0.00 | 0.00 | 0.00 | 61 | 1019.9 |
| 20260502005220 | 12 | 349 | 4.8 | 8.0 | 0.00 | 0.00 | 0.00 | 59 | 1019.8 |
| 20260502004716 | 13 | 340 | 4.8 | 12.9 | 0.00 | 0.00 | 0.00 | 58 | 1019.8 |
| 20260502004212 | 13 | 347 | 6.4 | 6.4 | 0.00 | 0.00 | 0.00 | 58 | 1019.6 |
| 20260502003710 | 13 | 355 | 3.2 | 6.4 | 0.00 | 0.00 | 0.00 | 57 | 1019.6 |
| 20260502003208 | 13 | 352 | 6.4 | 12.9 | 0.00 | 0.00 | 0.00 | 57 | 1019.5 |
| 20260502002703 | 13 | 54 | 8.0 | 14.5 | 0.00 | 0.00 | 0.00 | 57 | 1019.7 |
| 20260502002201 | 13 | 25 | 8.0 | 14.5 | 0.00 | 0.00 | 0.00 | 57 | 1019.4 |
| 20260502001658 | 13 | 357 | 12.9 | 16.1 | 0.00 | 0.00 | 0.00 | 57 | 1019.5 |
| 20260502001155 | 13 | 80 | 8.0 | 11.3 | 0.00 | 0.00 | 0.00 | 56 | 1019.4 |
| 20260502000653 | 13 | 45 | 9.7 | 11.3 | 0.00 | 0.00 | 0.00 | 57 | 1019.6 |
| 20260502000151 | 13 | 25 | 8.0 | 11.3 | 0.00 | 0.00 | 0.00 | 56 | 1019.4 |
| 20260501235646 | 13 | 35 | 9.7 | 12.9 | 0.00 | 0.00 | 0.00 | 55 | 1019.4 |
| 20260501235143 | 13 | 354 | 8.0 | 9.7 | 0.00 | 0.00 | 0.00 | 54 | 1019.6 |
| 20260501234638 | 13 | 17 | 4.8 | 8.0 | 0.00 | 0.00 | 0.00 | 55 | 1019.5 |
| 20260501234136 | 14 | 47 | 8.0 | 11.3 | 0.00 | 0.00 | 0.00 | 55 | 1019.6 |
| 20260501233634 | 13 | 83 | 6.4 | 8.0 | 0.00 | 0.00 | 0.00 | 56 | 1019.5 |
| 20260501233131 | 13 | 30 | 12.9 | 14.5 | 0.00 | 0.00 | 0.00 | 57 | 1019.5 |
| 20260501232627 | 12 | 6 | 6.4 | 8.0 | 0.00 | 0.00 | 0.00 | 61 | 1019.4 |
| 20260501232124 | 12 | 56 | 6.4 | 12.9 | 0.00 | 0.00 | 0.00 | 62 | 1019.7 |
| 20260501231622 | 12 | 5 | 9.7 | 17.7 | 0.00 | 0.00 | 0.00 | 64 | 1019.7 |
| 20260501231120 | 12 | 1 | 6.4 | 14.5 | 0.00 | 0.00 | 0.00 | 65 | 1019.6 |
| 20260501230618 | 12 | 354 | 11.3 | 12.9 | 0.00 | 0.00 | 0.00 | 65 | 1019.7 |
| 20260501230116 | 12 | 28 | 9.7 | 11.3 | 0.00 | 0.00 | 0.00 | 64 | 1019.6 |
| 20260501225613 | 11 | 347 | 6.4 | 9.7 | 0.00 | 0.00 | 0.00 | 66 | 1019.7 |
| 20260501225109 | 12 | 17 | 9.7 | 14.5 | 0.00 | 0.00 | 0.00 | 68 | 1019.7 |
| 20260501224607 | 11 | 39 | 8.0 | 12.9 | 0.00 | 0.00 | 0.00 | 69 | 1019.9 |
| 20260501224103 | 11 | 350 | 12.9 | 19.3 | 0.00 | 0.00 | 0.00 | 69 | 1019.7 |
| 20260501223600 | 11 | 346 | 9.7 | 12.9 | 0.00 | 0.00 | 0.00 | 71 | 1019.8 |
| 20260501223056 | 11 | 11 | 12.9 | 14.5 | 0.00 | 0.00 | 0.00 | 72 | 1019.8 |
| 20260501222553 | 11 | 351 | 9.7 | 11.3 | 0.00 | 0.00 | 0.00 | 71 | 1019.7 |
| 20260501222050 | 11 | 330 | 8.0 | 12.9 | 0.00 | 0.00 | 0.00 | 72 | 1020.0 |
| 20260501221546 | 11 | 52 | 8.0 | 12.9 | 0.00 | 0.00 | 0.00 | 73 | 1019.8 |
| 20260501221044 | 11 | 15 | 9.7 | 12.9 | 0.00 | 0.00 | 0.00 | 74 | 1019.9 |
| 20260501220542 | 11 | 21 | 11.3 | 14.5 | 0.00 | 0.00 | 0.00 | 75 | 1019.6 |
| 20260501220038 | 11 | 24 | 11.3 | 16.1 | 0.00 | 0.00 | 0.00 | 76 | 1019.7 |
| 20260501215534 | 11 | 8 | 8.0 | 12.9 | 0.00 | 0.00 | 0.00 | 75 | 1019.8 |
| 20260501215030 | 11 | 12 | 9.7 | 12.9 | 0.00 | 0.00 | 0.00 | 75 | 1019.9 |
| 20260501214525 | 11 | 10 | 6.4 | 11.3 | 0.00 | 0.00 | 0.00 | 75 | 1020.0 |
| 20260501214021 | 10 | 9 | 9.7 | 11.3 | 0.00 | 0.00 | 0.00 | 74 | 1019.8 |
| 20260501213519 | 10 | 16 | 11.3 | 12.9 | 0.00 | 0.00 | 0.00 | 75 | 1019.8 |
| 20260501213015 | 10 | 49 | 14.5 | 19.3 | 0.00 | 0.00 | 0.00 | 76 | 1020.1 |
| 20260501212511 | 10 | 14 | 9.7 | 16.1 | 0.00 | 0.00 | 0.00 | 76 | 1019.7 |
| 20260501212008 | 10 | 344 | 11.3 | 16.1 | 0.00 | 0.00 | 0.00 | 77 | 1019.9 |
| 20260501211505 | 10 | 12 | 12.9 | 19.3 | 0.00 | 0.00 | 0.00 | 75 | 1019.9 |
| 20260501211003 | 11 | 353 | 9.7 | 16.1 | 0.00 | 0.00 | 0.00 | 74 | 1019.9 |
| 20260501210459 | 11 | 48 | 16.1 | 16.1 | 0.00 | 0.00 | 0.00 | 70 | 1019.9 |
| 20260501205955 | 11 | 54 | 9.7 | 20.9 | 0.00 | 0.00 | 0.00 | 66 | 1020.0 |
| 20260501205452 | 11 | 26 | 8.0 | 19.3 | 0.00 | 0.00 | 0.00 | 66 | 1020.2 |
| 20260501204950 | 11 | 19 | 12.9 | 14.5 | 0.00 | 0.00 | 0.00 | 65 | 1020.1 |
| 20260501204445 | 12 | 51 | 16.1 | 20.9 | 0.00 | 0.00 | 0.00 | 63 | 1020.1 |
| 20260501203942 | 11 | 20 | 14.5 | 22.5 | 0.00 | 0.00 | 0.00 | 64 | 1020.2 |
| 20260501203439 | 12 | 56 | 16.1 | 16.1 | 0.00 | 0.00 | 0.00 | 65 | 1020.2 |
| 20260501202937 | 11 | 8 | 14.5 | 19.3 | 0.00 | 0.00 | 0.00 | 65 | 1020.1 |
| 20260501202433 | 12 | 73 | 12.9 | 17.7 | 0.00 | 0.00 | 0.00 | 67 | 1020.4 |
| 20260501201930 | 12 | 84 | 9.7 | 20.9 | 0.00 | 0.00 | 0.00 | 64 | 1020.5 |
| 20260501201427 | 11 | 33 | 11.3 | 14.5 | 0.00 | 0.00 | 0.00 | 65 | 1020.5 |
| 20260501200924 | 11 | 26 | 12.9 | 27.4 | 0.00 | 0.00 | 0.00 | 62 | 1020.2 |
| 20260501200420 | 12 | 57 | 12.9 | 20.9 | 0.00 | 0.00 | 0.00 | 62 | 1020.4 |
| 20260501195918 | 11 | 75 | 14.5 | 19.3 | 0.00 | 0.00 | 0.00 | 63 | 1020.5 |
| 20260501195415 | 11 | 15 | 16.1 | 19.3 | 0.00 | 0.00 | 0.00 | 63 | 1020.2 |
| 20260501194910 | 11 | 19 | 12.9 | 17.7 | 0.00 | 0.00 | 0.00 | 64 | 1020.2 |
| 20260501194406 | 11 | 6 | 12.9 | 17.7 | 0.00 | 0.00 | 0.00 | 65 | 1020.1 |
| 20260501193902 | 11 | 20 | 9.7 | 19.3 | 0.00 | 0.00 | 0.00 | 65 | 1020.5 |
| 20260501193401 | 11 | 48 | 9.7 | 17.7 | 0.00 | 0.00 | 0.00 | 66 | 1020.4 |
| 20260501192858 | 11 | 33 | 9.7 | 14.5 | 0.00 | 0.00 | 0.00 | 66 | 1020.2 |
| 20260501192355 | 11 | 24 | 11.3 | 24.1 | 0.00 | 0.00 | 0.00 | 67 | 1020.2 |
| 20260501191852 | 11 | 51 | 9.7 | 14.5 | 0.00 | 0.00 | 0.00 | 65 | 1020.2 |
| 20260501191349 | 11 | 78 | 9.7 | 16.1 | 0.00 | 0.00 | 0.00 | 66 | 1020.2 |
| 20260501190846 | 11 | 38 | 12.9 | 22.5 | 0.00 | 0.00 | 0.00 | 65 | 1020.2 |
| 20260501190342 | 12 | 19 | 14.5 | 16.1 | 0.00 | 0.00 | 0.00 | 65 | 1020.2 |
| 20260501185837 | 12 | 26 | 12.9 | 20.9 | 0.00 | 0.00 | 0.00 | 63 | 1020.4 |
| 20260501185334 | 12 | 71 | 20.9 | 27.4 | 0.00 | 0.00 | 0.00 | 59 | 1020.2 |
| 20260501184829 | 12 | 80 | 9.7 | 19.3 | 0.00 | 0.00 | 0.00 | 62 | 1020.1 |
| 20260501184326 | 12 | 92 | 14.5 | 19.3 | 0.00 | 0.00 | 0.00 | 63 | 1020.2 |
| 20260501183821 | 12 | 49 | 12.9 | 19.3 | 0.00 | 0.00 | 0.00 | 58 | 1020.4 |
| 20260501183319 | 12 | 66 | 12.9 | 25.7 | 0.00 | 0.00 | 0.00 | 56 | 1020.2 |
| 20260501182815 | 12 | 68 | 22.5 | 29.0 | 0.00 | 0.00 | 0.00 | 56 | 1020.2 |
| 20260501182312 | 12 | 79 | 11.3 | 17.7 | 0.00 | 0.00 | 0.00 | 57 | 1020.5 |
| 20260501181809 | 12 | 66 | 24.1 | 25.7 | 0.00 | 0.00 | 0.00 | 57 | 1020.2 |
| 20260501181306 | 12 | 34 | 11.3 | 12.9 | 0.00 | 0.00 | 0.00 | 58 | 1020.5 |
| 20260501180803 | 12 | 98 | 14.5 | 24.1 | 0.00 | 0.00 | 0.00 | 59 | 1020.6 |
| 20260501180258 | 12 | 66 | 9.7 | 20.9 | 0.00 | 0.00 | 0.00 | 59 | 1020.5 |
| 20260501175750 | 12 | 86 | 19.3 | 20.9 | 0.00 | 0.00 | 0.00 | 59 | 1020.6 |
| 20260501175247 | 12 | 80 | 14.5 | 19.3 | 0.00 | 0.00 | 0.00 | 59 | 1020.5 |
| 20260501174744 | 11 | 83 | 12.9 | 24.1 | 0.00 | 0.00 | 0.00 | 58 | 1020.6 |
| 20260501174241 | 12 | 51 | 16.1 | 24.1 | 0.00 | 0.00 | 0.00 | 58 | 1020.6 |
| 20260501173739 | 11 | 69 | 11.3 | 19.3 | 0.00 | 0.00 | 0.00 | 58 | 1020.5 |